Time,TemperatureF,DewpointF,PressureIn,WindDirection,WindDirectionDegrees,WindSpeedMPH,WindSpeedGustMPH,Humidity,HourlyPrecipIn,Conditions,Clouds,dailyrainin,SolarRadiationWatts/m^2,SoftwareType,DateUTC
2013-04-26 00:08:00,72.3,66.0,30.19,ENE,74,0.0,-999.0,80,-99.99,,,0.00,0,weatherlink.com 1.10,2013-04-26 04:08:00,
2013-04-26 00:23:00,72.4,66.0,30.19,East,95,0.0,-999.0,79,-99.99,,,0.00,0,weatherlink.com 1.10,2013-04-26 04:23:00,
2013-04-26 00:38:00,72.3,66.0,30.19,ENE,71,3.0,-999.0,80,-99.99,,,0.00,0,weatherlink.com 1.10,2013-04-26 04:38:00,
2013-04-26 00:53:00,72.2,66.0,30.19,East,95,2.0,-999.0,80,-99.99,,,0.00,0,weatherlink.com 1.10,2013-04-26 04:53:00,
2013-04-26 01:08:00,72.1,66.0,30.18,East,95,0.0,-999.0,80,-99.99,,,0.00,0,weatherlink.com 1.10,2013-04-26 05:08:00,
2013-04-26 01:23:00,71.8,65.0,30.18,East,95,0.0,-999.0,80,-99.99,,,0.00,0,weatherlink.com 1.10,2013-04-26 05:23:00,
2013-04-26 01:38:00,71.7,65.0,30.17,East,95,0.0,-999.0,80,-99.99,,,0.00,0,weatherlink.com 1.10,2013-04-26 05:38:00,
2013-04-26 01:54:00,71.5,65.0,30.17,East,95,0.0,-999.0,81,-99.99,,,0.00,0,weatherlink.com 1.10,2013-04-26 05:54:00,
2013-04-26 02:09:00,71.0,65.0,30.17,East,95,0.0,-999.0,81,-99.99,,,0.00,0,weatherlink.com 1.10,2013-04-26 06:09:00,
2013-04-26 02:24:00,70.5,65.0,30.17,East,95,0.0,-999.0,82,-99.99,,,0.00,0,weatherlink.com 1.10,2013-04-26 06:24:00,
2013-04-26 02:39:00,70.0,65.0,30.16,East,95,0.0,-999.0,83,-99.99,,,0.00,0,weatherlink.com 1.10,2013-04-26 06:39:00,
2013-04-26 02:54:00,69.5,65.0,30.16,East,95,0.0,-999.0,84,-99.99,,,0.00,0,weatherlink.com 1.10,2013-04-26 06:54:00,
2013-04-26 03:09:00,69.4,64.0,30.15,East,95,0.0,-999.0,82,-99.99,,,0.00,0,weatherlink.com 1.10,2013-04-26 07:09:00,
2013-04-26 03:24:00,69.5,63.0,30.15,East,95,0.0,-999.0,81,-99.99,,,0.00,0,weatherlink.com 1.10,2013-04-26 07:24:00,
2013-04-26 03:39:00,69.3,64.0,30.15,East,95,0.0,-999.0,82,-99.99,,,0.00,0,weatherlink.com 1.10,2013-04-26 07:39:00,
2013-04-26 03:54:00,68.9,64.0,30.15,East,95,0.0,-999.0,83,-99.99,,,0.00,0,weatherlink.com 1.10,2013-04-26 07:54:00,
2013-04-26 04:09:00,68.3,63.0,30.14,East,95,0.0,-999.0,83,-99.99,,,0.00,0,weatherlink.com 1.10,2013-04-26 08:09:00,
2013-04-26 04:24:00,67.7,63.0,30.14,East,95,0.0,-999.0,85,-99.99,,,0.00,0,weatherlink.com 1.10,2013-04-26 08:24:00,
2013-04-26 04:39:00,67.4,63.0,30.14,East,95,0.0,-999.0,86,-99.99,,,0.00,0,weatherlink.com 1.10,2013-04-26 08:39:00,
2013-04-26 04:54:00,67.0,63.0,30.14,East,95,0.0,-999.0,87,-99.99,,,0.00,0,weatherlink.com 1.10,2013-04-26 08:54:00,
2013-04-26 05:09:00,66.7,63.0,30.14,East,95,0.0,-999.0,88,-99.99,,,0.00,0,weatherlink.com 1.10,2013-04-26 09:09:00,
2013-04-26 05:24:00,66.5,63.0,30.14,East,95,0.0,-999.0,88,-99.99,,,0.00,0,weatherlink.com 1.10,2013-04-26 09:24:00,
2013-04-26 05:39:00,66.2,63.0,30.14,East,95,0.0,-999.0,89,-99.99,,,0.00,0,weatherlink.com 1.10,2013-04-26 09:39:00,
2013-04-26 05:54:00,66.0,63.0,30.14,East,95,0.0,-999.0,89,-99.99,,,0.00,0,weatherlink.com 1.10,2013-04-26 09:54:00,
2013-04-26 06:09:00,65.7,63.0,30.15,East,95,0.0,-999.0,90,-99.99,,,0.00,0,weatherlink.com 1.10,2013-04-26 10:09:00,
2013-04-26 06:24:00,65.4,63.0,30.15,East,95,0.0,-999.0,90,-99.99,,,0.00,0,weatherlink.com 1.10,2013-04-26 10:24:00,
2013-04-26 06:39:00,65.2,63.0,30.15,East,95,0.0,-999.0,91,-99.99,,,0.00,0,weatherlink.com 1.10,2013-04-26 10:39:00,
2013-04-26 06:54:00,65.0,62.0,30.16,East,95,0.0,-999.0,91,-99.99,,,0.00,0,weatherlink.com 1.10,2013-04-26 10:54:00,
2013-04-26 07:09:00,64.9,63.0,30.16,East,95,0.0,-999.0,92,-99.99,,,0.00,14,weatherlink.com 1.10,2013-04-26 11:09:00,
2013-04-26 07:24:00,65.0,63.0,30.17,East,95,0.0,-999.0,92,-99.99,,,0.00,39,weatherlink.com 1.10,2013-04-26 11:24:00,
2013-04-26 07:39:00,65.6,64.0,30.18,East,95,0.0,-999.0,93,-99.99,,,0.00,81,weatherlink.com 1.10,2013-04-26 11:39:00,
2013-04-26 07:54:00,67.9,66.0,30.18,East,95,0.0,-999.0,92,-99.99,,,0.00,121,weatherlink.com 1.10,2013-04-26 11:54:00,
2013-04-26 08:09:00,70.9,67.0,30.18,East,95,0.0,-999.0,88,-99.99,,,0.00,178,weatherlink.com 1.10,2013-04-26 12:09:00,
2013-04-26 08:24:00,74.0,66.0,30.18,East,95,0.0,-999.0,76,-99.99,,,0.00,239,weatherlink.com 1.10,2013-04-26 12:24:00,
2013-04-26 08:40:00,75.6,66.0,30.19,East,95,0.0,-999.0,71,-99.99,,,0.00,295,weatherlink.com 1.10,2013-04-26 12:40:00,
2013-04-26 08:55:00,76.8,65.0,30.20,SE,128,1.0,-999.0,68,-99.99,,,0.00,352,weatherlink.com 1.10,2013-04-26 12:55:00,
2013-04-26 09:10:00,77.4,66.0,30.20,SE,128,1.0,-999.0,67,-99.99,,,0.00,385,weatherlink.com 1.10,2013-04-26 13:10:00,
2013-04-26 09:25:00,78.2,65.0,30.20,SE,128,0.0,-999.0,65,-99.99,,,0.00,464,weatherlink.com 1.10,2013-04-26 13:25:00,
2013-04-26 09:40:00,78.9,65.0,30.21,SSW,211,1.0,-999.0,63,-99.99,,,0.00,520,weatherlink.com 1.10,2013-04-26 13:40:00,
2013-04-26 09:55:00,79.4,66.0,30.21,SSE,167,2.0,-999.0,64,-99.99,,,0.00,577,weatherlink.com 1.10,2013-04-26 13:55:00,
2013-04-26 10:10:00,79.4,65.0,30.22,South,180,3.0,-999.0,62,-99.99,,,0.00,638,weatherlink.com 1.10,2013-04-26 14:10:00,
2013-04-26 10:25:00,79.2,65.0,30.22,East,86,3.0,-999.0,63,-99.99,,,0.00,680,weatherlink.com 1.10,2013-04-26 14:25:00,
2013-04-26 10:40:00,78.3,65.0,30.22,East,92,1.0,-999.0,64,-99.99,,,0.00,742,weatherlink.com 1.10,2013-04-26 14:40:00,
2013-04-26 10:55:00,78.7,65.0,30.23,ESE,115,2.0,-999.0,63,-99.99,,,0.00,752,weatherlink.com 1.10,2013-04-26 14:55:00,
2013-04-26 11:10:00,78.8,64.0,30.23,ESE,113,0.0,-999.0,60,-99.99,,,0.00,788,weatherlink.com 1.10,2013-04-26 15:10:00,
2013-04-26 11:25:00,80.3,65.0,30.23,SE,126,0.0,-999.0,59,-99.99,,,0.00,817,weatherlink.com 1.10,2013-04-26 15:25:00,
2013-04-26 11:40:00,80.9,64.0,30.23,ENE,59,0.0,-999.0,57,-99.99,,,0.00,849,weatherlink.com 1.10,2013-04-26 15:40:00,
2013-04-26 11:55:00,80.9,64.0,30.23,SE,128,2.0,-999.0,56,-99.99,,,0.00,874,weatherlink.com 1.10,2013-04-26 15:55:00,
2013-04-26 12:10:00,81.8,64.0,30.22,ESE,123,2.0,-999.0,55,-99.99,,,0.00,900,weatherlink.com 1.10,2013-04-26 16:10:00,
2013-04-26 12:25:00,81.9,63.0,30.22,ESE,111,1.0,-999.0,53,-99.99,,,0.00,923,weatherlink.com 1.10,2013-04-26 16:25:00,
2013-04-26 12:41:00,82.1,63.0,30.21,ENE,58,2.0,-999.0,53,-99.99,,,0.00,940,weatherlink.com 1.10,2013-04-26 16:41:00,
2013-04-26 12:56:00,82.1,64.0,30.21,SE,126,1.0,-999.0,54,-99.99,,,0.00,947,weatherlink.com 1.10,2013-04-26 16:56:00,
2013-04-26 13:11:00,82.3,64.0,30.20,NE,44,2.0,-999.0,54,-99.99,,,0.00,956,weatherlink.com 1.10,2013-04-26 17:11:00,
2013-04-26 13:26:00,83.3,64.0,30.20,ESE,107,2.0,-999.0,53,-99.99,,,0.00,958,weatherlink.com 1.10,2013-04-26 17:26:00,
2013-04-26 13:41:00,83.8,65.0,30.19,ESE,103,2.0,-999.0,53,-99.99,,,0.00,956,weatherlink.com 1.10,2013-04-26 17:41:00,
2013-04-26 13:56:00,84.5,65.0,30.20,North,10,0.0,-999.0,52,-99.99,,,0.00,953,weatherlink.com 1.10,2013-04-26 17:56:00,
2013-04-26 14:11:00,84.7,64.0,30.19,ENE,76,6.0,-999.0,50,-99.99,,,0.00,932,weatherlink.com 1.10,2013-04-26 18:11:00,
2013-04-26 14:26:00,85.1,64.0,30.19,SE,144,0.0,-999.0,50,-99.99,,,0.00,916,weatherlink.com 1.10,2013-04-26 18:26:00,
2013-04-26 14:41:00,85.6,64.0,30.19,SSE,166,1.0,-999.0,48,-99.99,,,0.00,933,weatherlink.com 1.10,2013-04-26 18:41:00,
2013-04-26 14:56:00,85.9,64.0,30.18,East,100,0.0,-999.0,48,-99.99,,,0.00,967,weatherlink.com 1.10,2013-04-26 18:56:00,
2013-04-26 15:11:00,86.3,64.0,30.18,ENE,67,2.0,-999.0,47,-99.99,,,0.00,831,weatherlink.com 1.10,2013-04-26 19:11:00,
2013-04-26 15:26:00,86.5,63.0,30.17,ESE,111,0.0,-999.0,46,-99.99,,,0.00,828,weatherlink.com 1.10,2013-04-26 19:26:00,
2013-04-26 15:41:00,86.8,64.0,30.16,ENE,64,4.0,-999.0,46,-99.99,,,0.00,766,weatherlink.com 1.10,2013-04-26 19:41:00,
2013-04-26 15:56:00,87.0,64.0,30.16,ESE,105,4.0,-999.0,46,-99.99,,,0.00,717,weatherlink.com 1.10,2013-04-26 19:56:00,
2013-04-26 16:11:00,86.3,64.0,30.15,ESE,107,2.0,-999.0,47,-99.99,,,0.00,120,weatherlink.com 1.10,2013-04-26 20:11:00,
2013-04-26 16:26:00,86.8,64.0,30.14,ESE,116,0.0,-999.0,46,-99.99,,,0.00,137,weatherlink.com 1.10,2013-04-26 20:26:00,
2013-04-26 16:41:00,85.6,68.0,30.14,NNW,337,0.0,-999.0,55,-99.99,,,0.00,193,weatherlink.com 1.10,2013-04-26 20:41:00,
2013-04-26 16:56:00,84.1,68.0,30.14,NNW,336,2.0,-999.0,58,-99.99,,,0.00,95,weatherlink.com 1.10,2013-04-26 20:56:00,
2013-04-26 17:11:00,83.9,68.0,30.14,SSE,167,1.0,-999.0,59,-99.99,,,0.00,90,weatherlink.com 1.10,2013-04-26 21:11:00,
2013-04-26 17:26:00,83.8,68.0,30.13,NNW,333,3.0,-999.0,60,-99.99,,,0.00,123,weatherlink.com 1.10,2013-04-26 21:26:00,
2013-04-26 17:41:00,82.8,68.0,30.13,NNW,338,1.0,-999.0,62,-99.99,,,0.00,69,weatherlink.com 1.10,2013-04-26 21:41:00,
2013-04-26 17:56:00,82.0,68.0,30.13,NNW,327,4.0,-999.0,63,-99.99,,,0.00,153,weatherlink.com 1.10,2013-04-26 21:56:00,
2013-04-26 18:11:00,82.3,68.0,30.13,NW,325,0.0,-999.0,63,-99.99,,,0.00,60,weatherlink.com 1.10,2013-04-26 22:11:00,
2013-04-26 18:26:00,81.9,69.0,30.13,NNW,340,2.0,-999.0,64,-99.99,,,0.00,51,weatherlink.com 1.10,2013-04-26 22:26:00,
2013-04-26 18:41:00,81.4,69.0,30.13,NNW,332,0.0,-999.0,66,-99.99,,,0.00,46,weatherlink.com 1.10,2013-04-26 22:41:00,
2013-04-26 18:56:00,80.9,69.0,30.14,NNW,329,3.0,-999.0,67,-99.99,,,0.00,40,weatherlink.com 1.10,2013-04-26 22:56:00,
2013-04-26 19:11:00,80.2,68.0,30.14,North,355,3.0,-999.0,67,-99.99,,,0.00,33,weatherlink.com 1.10,2013-04-26 23:11:00,
2013-04-26 19:26:00,79.8,68.0,30.14,WNW,286,4.0,-999.0,67,-99.99,,,0.00,25,weatherlink.com 1.10,2013-04-26 23:26:00,
2013-04-26 19:41:00,79.1,68.0,30.14,North,360,2.0,-999.0,68,-99.99,,,0.00,14,weatherlink.com 1.10,2013-04-26 23:41:00,
2013-04-26 20:11:00,77.9,68.0,30.14,NW,324,3.0,-999.0,71,-99.99,,,0.00,0,weatherlink.com 1.10,2013-04-27 00:11:00,
2013-04-26 20:26:00,77.4,69.0,30.15,NNW,340,5.0,-999.0,74,-99.99,,,0.00,0,weatherlink.com 1.10,2013-04-27 00:26:00,
2013-04-26 20:41:00,77.1,69.0,30.15,NNW,331,1.0,-999.0,75,-99.99,,,0.00,0,weatherlink.com 1.10,2013-04-27 00:41:00,
2013-04-26 20:56:00,76.9,68.0,30.16,NW,325,4.0,-999.0,75,-99.99,,,0.00,0,weatherlink.com 1.10,2013-04-27 00:56:00,
2013-04-26 21:11:00,76.7,68.0,30.16,NNW,341,0.0,-999.0,75,-99.99,,,0.00,0,weatherlink.com 1.10,2013-04-27 01:11:00,
2013-04-26 21:26:00,76.4,68.0,30.17,NNW,333,1.0,-999.0,75,-99.99,,,0.00,0,weatherlink.com 1.10,2013-04-27 01:26:00,
2013-04-26 21:41:00,76.4,68.0,30.18,NW,324,0.0,-999.0,75,-99.99,,,0.00,0,weatherlink.com 1.10,2013-04-27 01:41:00,
2013-04-26 21:56:00,76.3,68.0,30.19,NNW,348,1.0,-999.0,76,-99.99,,,0.00,0,weatherlink.com 1.10,2013-04-27 01:56:00,
2013-04-26 22:11:00,76.0,68.0,30.19,NW,317,0.0,-999.0,77,-99.99,,,0.00,0,weatherlink.com 1.10,2013-04-27 02:11:00,
2013-04-26 22:26:00,76.0,68.0,30.20,NW,325,0.0,-999.0,76,-99.99,,,0.00,0,weatherlink.com 1.10,2013-04-27 02:26:00,
2013-04-26 22:41:00,76.0,67.0,30.20,NW,325,1.0,-999.0,74,-99.99,,,0.00,0,weatherlink.com 1.10,2013-04-27 02:41:00,
2013-04-26 22:56:00,76.0,67.0,30.20,NNW,338,0.0,-999.0,74,-99.99,,,0.00,0,weatherlink.com 1.10,2013-04-27 02:56:00,
2013-04-26 23:11:00,75.8,67.0,30.20,NNW,338,0.0,-999.0,75,-99.99,,,0.00,0,weatherlink.com 1.10,2013-04-27 03:11:00,
2013-04-26 23:26:00,75.4,67.0,30.20,NE,37,0.0,-999.0,76,-99.99,,,0.00,0,weatherlink.com 1.10,2013-04-27 03:26:00,
2013-04-26 23:41:00,75.2,68.0,30.20,NE,37,0.0,-999.0,77,-99.99,,,0.00,0,weatherlink.com 1.10,2013-04-27 03:41:00,
2013-04-26 23:56:00,75.7,66.0,30.20,ESE,111,4.0,-999.0,73,-99.99,,,0.00,0,weatherlink.com 1.10,2013-04-27 03:56:00,